CZ-6A DEB, 54600

Orbit data source: Space-Track

CZ-6A DEB, 54600 is space debris in SSO originally from a launch on Fri, 11 Nov 2022 UTC launched from the Taiyaun Space Center, China (TSC). Debris objects in space refer to the collection of defunct objects orbiting the Earth. Examples of debris include non-operational satellites, rocket bodies, and fragments generated from explosions, collisions, or faulty payload assembly.

Loading next visibility...
Identifier
54600, 2022-151NA
Orbit
SSO
Country
Flag of CNCN / PRC
Related business
Manufacturer
SAST
Mission
Spacecraft
Bus & Motor
Unknown
Mass
Unknown
Launch date (UTC)
2022-11-11 (4 years ago)
Launch vehicle
Unknown
Launch site
Taiyaun Space Center, China (TSC)
Object type
Payload
Rocket body
Debris
Shape & HBR
Unknown shape, 0.1 m
Radar Cross Section
Medium (>0.1 m² and <1 m²)

Expand to show TLE details & history
Last TLE update: 2 days ago

TLE from 2 days ago
0 CZ-6A DEB
1 54600U 22151NA  26171.17466081  .00008282  00000-0  12413-2 0  9999
2 54600  98.6031 235.6293 0063786 267.6474  91.7428 14.73520576190685
Epoch: 2026-06-20T04:11Z
TLE epoch observation values (Epoch: 2026-06-20T04:11:30.693Z)
Latitude
-0.00007°
Longitude
-95.64164°
Altitude
654.491 km
Speed
7.529 km/s
True Right ascension
15h 42m 31s
True Declination
0° 00' 00"
Sunlit
Object was in full shadow at epoch
Visualization orbit readout
Latitude
Unknown
Longitude
Unknown
Altitude
Unknown
Speed
Unknown
Apparent Right ascension
Unknown
Apparent Declination
Unknown
Sunlit
N/A
Visualization observer readout
Local Sidereal Time
21:57:15
Azimuth
Unknown
Elevation
Unknown
Doppler factor
Unknown
Orbital elements
Apogee altitude
691.744 km
Perigee altitude
602.123 km
Semi-major axis
7,025.071 km
Eccentricity
0.00638
Inclination
98.6031°
RAAN
235.6293°
Arg. of periapsis
267.6474°
True anomaly
92.4732°
Mean anomaly
91.7428°
Eccentric anomaly
92.10802°
Mean motion
3.6861 °/min
Orbital period
97.66 mins
BSTAR
0.0012413
Loading maneuver chart data...
Computing Atmospheric mass density...
Loading historical data...
Loading historical data...
Loading historical data...
Loading historical data...
Loading historical data...
Loading historical data...
Loading historical data...

Documentation

Showing up to 5 results
|